Regional Weather Roundup
Issued by NWS

Home | Current Version | Previous Version | Text Only | Print | Product List | Glossary Off
Versions: 1 2 3 4 5 6 7 8 9 10 11 12 13 14 15 16 17 18 19 20 21 22 23 24 25 26 27 28 29 30 31 32 33 34 35 36 37 38 39 40 41 42 43 44 45 46 47 48 49 50

000
ASUS43 KMKX 112320
RWRWI

WISCONSIN REGIONAL WEATHER ROUNDUP
NATIONAL WEATHER SERVICE MILWAUKEE/SULLIVAN WI
500 PM CST MON DEC 11 2017

NOTE: "FAIR" INDICATES FEW OR NO CLOUDS BELOW 12,000 FEET WITH NO
SIGNIFICANT WEATHER AND/OR OBSTRUCTIONS TO VISIBILITY.

WIZ001-002-006>008-014>016-023>028-120000-
NORTHWEST WISCONSIN

CITY           SKY/WX    TMP DP  RH WIND       PRES   REMARKS
SUPERIOR ARPT  PTCLDY    20  11  68 N14G22    30.04R WCI   7
ASHLAND        CLOUDY    22  11  62 NW13      29.98R WCI  10
HAYWARD        MOCLDY    22  12  65 N16G25    29.96R WCI   8
SIREN          CLOUDY    24  13  63 NW17      30.02R WCI  10
CUMBERLAND     CLOUDY    23  14  68 N21       29.96R WCI   8
RICE LAKE      MOCLDY    25  14  64 NW18G29   29.98R WCI  11
CHETEK         CLOUDY    25  16  68 N10G24    29.95R WCI  15
LADYSMITH      CLOUDY    25  17  70 NW22G31   29.92R WCI  10
EAU CLAIRE     CLOUDY    29  19  66 NW17G30   29.92R WCI  17
MENOMONIE      CLOUDY    31  19  62 NW23G31   29.94R WCI  17
NEW RICHMOND   CLOUDY    26  17  69 N24G31    30.00R WCI  11
OSCEOLA        CLOUDY    27  16  64 N15G25    30.05R WCI  15
$$

WIZ003>005-009-010-017-018-120000-
NORTH CENTRAL WISCONSIN

CITY           SKY/WX    TMP DP  RH WIND       PRES   REMARKS
MANITOWISH WTR LGT SNOW  19  16  88 N14G22    29.83R WCI   6
ARBOR VITAE    LGT SNOW  22  17  81 NW24G31   29.81R WCI   6
WOODRUFF       LGT SNOW  22  17  81 NW24G31   29.81R WCI   6
RHINELANDER    CLOUDY    24  20  84 NW14G24   29.78R WCI  12
EAGLE RIVER    LGT SNOW  22  17  78 NW18G28   29.77R WCI   8
LAND O LAKES   LGT SNOW  22  18  83 NW14G26   29.79R WCI   9
PHILLIPS       FLURRIES  22  17  79 N13G23    29.85R WCI  10
TOMAHAWK       CLOUDY    24  20  85 NW10G23   29.81R WCI  13
MEDFORD        CLOUDY    26  20  80 NW21G26   29.81R WCI  11
MERRILL        CLOUDY    26  23  85 N15G22    29.80R WCI  14
$$

WIZ029-030-035-036-043>047-120000-
CENTRAL WISCONSIN

CITY           SKY/WX    TMP DP  RH WIND       PRES   REMARKS
WAUSAU         CLOUDY    27  23  85 NW14G22   29.78R WCI  16
MOSINEE        CLOUDY    27  25  93 NW13      29.80R WCI  16
MARSHFIELD     CLOUDY    28  23  81 NW21G28   29.82R WCI  15
STEVENS POINT  CLOUDY    26  23  89 NW8       29.81R WCI  18
WAUPACA        CLOUDY    31  24  77 NW9G17    29.79R WCI  22
WAUTOMA        CLOUDY    29  24  82 N16G26    29.80R WCI  17
WISC RAPIDS    CLOUDY    29  23  78 N12       29.83R WCI  19
CAMP DOUGLAS   CLOUDY    30  25  80 NW13G22   29.84R WCI  20
$$

WIZ011>013-019>022-031-037>040-048>050-120000-
NORTHEAST WISCONSIN

CITY           SKY/WX    TMP DP  RH WIND       PRES   REMARKS
ANTIGO         CLOUDY    25  23  93 NW15G22   29.75R WCI  12
SHAWANO        CLOUDY    28  24  86 W3        29.77R
OCONTO         CLOUDY    26  22  88 W3        29.77R
STURGEON BAY   CLOUDY    26  23  88 NW13      29.76R WCI  15
GREEN BAY      CLOUDY    27  24  89 NW10      29.77R WCI  17
MANITOWOC      CLOUDY    29  24  82 NW10      29.76R WCI  20
APPLETON       CLOUDY    27  21  80 NW13      29.75R WCI  16
CLINTONVILLE   NOT AVBL
OSHKOSH        CLOUDY    29  24  82 NW9       29.76R WCI  20
$$

WIZ032>034-041-042-053>061-120000-
SOUTHWEST WISCONSIN

CITY           SKY/WX    TMP DP  RH WIND       PRES   REMARKS
LA CROSSE      CLOUDY    34  27  75 N16       29.89R WCI  24
SPARTA         CLOUDY    31  26  82 NW9       29.88R WCI  23
VIROQUA        CLOUDY    30  29  95 NW17G24   29.83R WCI  18
BOSCOBEL       CLOUDY    34  28  79 N10       29.86R WCI  26
PRAIRIE DU CHI CLOUDY    34  29  82 NW18G26   29.86R WCI  23
PLATTEVILLE    CLOUDY    32  32  99 NW12      29.81R WCI  23
$$

WIZ056-057-062-063-064-067-068-120000-
SOUTH CENTRAL WISCONSIN

CITY           SKY/WX    TMP DP  RH WIND       PRES   REMARKS
REEDSBURG      CLOUDY    31  27  84 NW16G23   29.80R WCI  20
BARABOO/DELLS  CLOUDY    31  26  80 N13G20    29.79R WCI  22
LONE ROCK      CLOUDY    32  29  88 NW7       29.83R WCI  26
MINERAL POINT  CLOUDY    32  32 100 NW13      29.80R WCI  22
MADISON        CLOUDY    32  26  78 NW8       29.78R WCI  25
MIDDLETON      CLOUDY    32  29  88 NW8       29.79R WCI  25
WATERTOWN      CLOUDY    31  28  88 NW8       29.76R WCI  23
MONROE         CLOUDY    32  28  86 N8        29.75S WCI  25
JANESVILLE     CLOUDY    34  28  80 NW7       29.75R WCI  28
$$

WIZ051-052-058>065-066-070>072-120000-
SOUTHEAST WISCONSIN

CITY           SKY/WX    TMP DP  RH WIND       PRES   REMARKS
MILWAUKEE      MOCLDY    34  27  75 NW9       29.73R WCI  27
WAUKESHA       MOCLDY    28  25  86 NW8       29.74R WCI  20
MILWAUKEE/TIMM CLOUDY    32  23  69 NW8       29.74R WCI  25
RACINE         CLOUDY    32  28  85 NW6       29.75R WCI  26
BURLINGTON     CLOUDY    42  42 100 NW6       29.74R
KENOSHA        CLOUDY    32  28  85 W6        29.73R WCI  26
FOND DU LAC    CLOUDY    31  23  72 NW13      29.76R WCI  21
SHEBOYGAN      CLOUDY    30  25  81 NW12      29.75R WCI  20
WEST BEND      CLOUDY    30  27  86 NW9       29.75R WCI  22
JUNEAU         CLOUDY    30  25  82 NW3       29.77R
$$

LSZ147-162-120000-
LAKE SUPERIOR

STATION/POSITION TIME  TEMP    WIND        PRES    WAVE
                       AIR SEA DIR/SP/G            HT/PER
                 (UTC) (F)     (DEG/KT/KT) (MB)    (FT/S)
DEVILS ISLAND    2300   21     320/ 28/ 31 1016.8R
SAXON HARBOR     2250   26                 1013.9R
$$

LMZ867-665-643>646-120000-
LAKE MICHIGAN

STATION/POSITION TIME  TEMP    WIND        PRES    WAVE
                       AIR SEA DIR/SP/G            HT/PER
                 (UTC) (F)     (DEG/KT/KT) (MB)    (FT/S)
NORTHPORT PIER   2240   28     300/ 13/ 19 1006.8S
KEWAUNEE LAKESHO 2254   27     310/  7/ 11 1006.7R
SHEBOYGAN LAKESH 2300   31     320/  8/ 11 1008.0R
PORT WASHINGTON  2230   32     300/  3/  5 1007.8S
MILWAUKEE LAKESH 2300   34     310/  8/ 10   N/A
KENOSHA   LAKESH 2300   32     300/  6/  7 1007.5
$$

TC  - TEMPERATURE IN CELSIUS
VSB - VISIBILITY IN STATUTE MILES
WCI - WIND CHILL INDEX
HX  - HEAT INDEX





USA.gov is the U.S. government's official web portal to all federal, state and local government web resources and services.